| time (UTC) | temp F | wind direction | speed MPH | gust MPH | rain 1hr in | rain 24hr in | rain mn in | humidity % | barometer mb |
| 20260506185036 | 57 | 101 | 2.0 | 10.0 | 0.00 | 0.00 | 0.00 | 81 | 1019.3 |
| 20260506184543 | 57 | 167 | 4.0 | 10.0 | 0.00 | 0.00 | 0.00 | 81 | 1019.5 |
| 20260506184035 | 57 | 206 | 2.0 | 9.0 | 0.00 | 0.00 | 0.00 | 81 | 1019.4 |
| 20260506183535 | 57 | 160 | 4.0 | 9.0 | 0.00 | 0.00 | 0.00 | 81 | 1019.2 |
| 20260506183034 | 57 | 153 | 6.0 | 9.0 | 0.00 | 0.00 | 0.00 | 81 | 1019.2 |
| 20260506182533 | 57 | 183 | 3.0 | 7.0 | 0.00 | 0.00 | 0.00 | 81 | 1019.2 |
| 20260506182032 | 57 | 144 | 4.0 | 7.0 | 0.00 | 0.00 | 0.00 | 82 | 1019.2 |
| 20260506181534 | 57 | 190 | 2.0 | 6.0 | 0.00 | 0.00 | 0.00 | 82 | 1019.1 |
| 20260506181033 | 57 | 155 | 0.0 | 8.0 | 0.00 | 0.00 | 0.00 | 82 | 1019.1 |
| 20260506180533 | 56 | 69 | 0.0 | 8.0 | 0.00 | 0.00 | 0.00 | 82 | 1019.0 |
| 20260506180031 | 56 | 131 | 1.0 | 5.0 | 0.00 | 0.00 | 0.00 | 83 | 1019.0 |
| 20260506175531 | 56 | 138 | 2.0 | 8.0 | 0.00 | 0.00 | 0.00 | 83 | 1018.9 |
| 20260506175029 | 56 | 192 | 5.0 | 9.0 | 0.00 | 0.00 | 0.00 | 83 | 1018.8 |
| 20260506174529 | 56 | 181 | 2.0 | 5.0 | 0.00 | 0.00 | 0.00 | 84 | 1019.0 |
| 20260506174028 | 55 | 10 | 1.0 | 7.0 | 0.00 | 0.00 | 0.00 | 84 | 1019.0 |
| 20260506173526 | 55 | 172 | 4.0 | 7.0 | 0.00 | 0.00 | 0.00 | 85 | 1019.0 |
| 20260506173032 | 55 | 175 | 1.0 | 10.0 | 0.00 | 0.00 | 0.00 | 85 | 1019.1 |
| 20260506172524 | 55 | 192 | 3.0 | 10.0 | 0.00 | 0.00 | 0.00 | 86 | 1019.0 |
| 20260506172023 | 55 | 335 | 1.0 | 3.0 | 0.00 | 0.00 | 0.00 | 86 | 1018.9 |
| 20260506171524 | 54 | 22 | 1.0 | 6.0 | 0.00 | 0.00 | 0.00 | 87 | 1018.9 |
| 20260506171023 | 54 | 164 | 2.0 | 6.0 | 0.00 | 0.00 | 0.00 | 88 | 1019.0 |
| 20260506170526 | 54 | 318 | 2.0 | 5.0 | 0.00 | 0.00 | 0.00 | 88 | 1019.0 |
| 20260506170022 | 54 | 346 | 1.0 | 4.0 | 0.00 | 0.00 | 0.00 | 88 | 1018.9 |
| 20260506165522 | 54 | 158 | 1.0 | 8.0 | 0.00 | 0.00 | 0.00 | 89 | 1018.9 |
| 20260506165020 | 53 | 326 | 1.0 | 8.0 | 0.00 | 0.00 | 0.00 | 89 | 1018.9 |
| 20260506164520 | 53 | 205 | 1.0 | 7.0 | 0.00 | 0.00 | 0.00 | 88 | 1018.9 |
| 20260506164019 | 53 | 176 | 3.0 | 7.0 | 0.00 | 0.00 | 0.00 | 89 | 1018.9 |
| 20260506163518 | 53 | 160 | 2.0 | 9.0 | 0.00 | 0.00 | 0.00 | 89 | 1018.8 |
| 20260506163037 | 53 | 183 | 3.0 | 9.0 | 0.00 | 0.00 | 0.00 | 88 | 1018.7 |
| 20260506162517 | 53 | 189 | 4.0 | 9.0 | 0.00 | 0.00 | 0.00 | 88 | 1018.6 |
| 20260506162017 | 53 | 174 | 5.0 | 9.0 | 0.00 | 0.00 | 0.00 | 88 | 1018.6 |
| 20260506161516 | 53 | 191 | 4.0 | 8.0 | 0.00 | 0.00 | 0.00 | 88 | 1018.5 |
| 20260506161014 | 53 | 160 | 3.0 | 7.0 | 0.00 | 0.00 | 0.00 | 88 | 1018.6 |
| 20260506160513 | 53 | 197 | 4.0 | 9.0 | 0.00 | 0.00 | 0.00 | 88 | 1018.6 |
| 20260506160013 | 53 | 166 | 3.0 | 9.0 | 0.00 | 0.00 | 0.00 | 88 | 1018.7 |
| 20260506155512 | 53 | 53 | 1.0 | 8.0 | 0.00 | 0.00 | 0.00 | 89 | 1018.6 |
| 20260506155011 | 53 | 171 | 3.0 | 8.0 | 0.00 | 0.00 | 0.00 | 89 | 1018.7 |
| 20260506154527 | 53 | 160 | 3.0 | 9.0 | 0.00 | 0.00 | 0.00 | 89 | 1018.6 |
| 20260506154010 | 53 | 192 | 1.0 | 7.0 | 0.00 | 0.00 | 0.00 | 90 | 1018.6 |
| 20260506153511 | 53 | 135 | 2.0 | 6.0 | 0.00 | 0.00 | 0.00 | 90 | 1018.6 |
| 20260506153009 | 53 | 166 | 2.0 | 5.0 | 0.00 | 0.00 | 0.00 | 90 | 1018.6 |
| 20260506152515 | 53 | 149 | 1.0 | 4.0 | 0.00 | 0.00 | 0.00 | 90 | 1018.7 |
| 20260506152011 | 53 | 62 | 1.0 | 5.0 | 0.00 | 0.00 | 0.00 | 90 | 1018.6 |
| 20260506151511 | 53 | 120 | 1.0 | 6.0 | 0.00 | 0.00 | 0.00 | 90 | 1018.6 |
| 20260506151008 | 53 | 206 | 0.0 | 6.0 | 0.00 | 0.00 | 0.00 | 90 | 1018.5 |
| 20260506150509 | 53 | 360 | 1.0 | 5.0 | 0.00 | 0.00 | 0.00 | 90 | 1018.5 |
| 20260506150007 | 53 | 211 | 1.0 | 7.0 | 0.00 | 0.00 | 0.00 | 90 | 1018.5 |
| 20260506145505 | 53 | 268 | 2.0 | 7.0 | 0.00 | 0.00 | 0.00 | 89 | 1018.5 |
| 20260506145003 | 53 | 191 | 2.0 | 7.0 | 0.00 | 0.00 | 0.00 | 89 | 1018.6 |
| 20260506144503 | 54 | 119 | 1.0 | 7.0 | 0.00 | 0.00 | 0.00 | 89 | 1018.3 |
| 20260506144002 | 54 | 237 | 2.0 | 7.0 | 0.00 | 0.00 | 0.00 | 89 | 1018.2 |
| 20260506143504 | 54 | 164 | 1.0 | 10.0 | 0.00 | 0.00 | 0.00 | 89 | 1018.2 |
| 20260506143003 | 54 | 79 | 4.0 | 10.0 | 0.00 | 0.00 | 0.00 | 88 | 1018.3 |
| 20260506142556 | 54 | 56 | 4.0 | 10.0 | 0.00 | 0.00 | 0.00 | 88 | 1018.1 |
| 20260506142053 | 54 | 222 | 2.0 | 7.0 | 0.00 | 0.00 | 0.00 | 88 | 1018.0 |
| 20260506141552 | 54 | 156 | 2.0 | 6.0 | 0.00 | 0.00 | 0.00 | 88 | 1017.8 |
| 20260506141051 | 54 | 218 | 2.0 | 7.0 | 0.00 | 0.00 | 0.00 | 88 | 1017.8 |
| 20260506140554 | 54 | 174 | 3.0 | 7.0 | 0.00 | 0.00 | 0.00 | 87 | 1017.7 |
| 20260506140050 | 54 | 85 | 1.0 | 6.0 | 0.00 | 0.00 | 0.00 | 87 | 1017.7 |
| 20260506135548 | 54 | 177 | 3.0 | 8.0 | 0.00 | 0.00 | 0.00 | 87 | 1017.8 |
| 20260506135048 | 54 | 137 | 4.0 | 8.0 | 0.00 | 0.00 | 0.00 | 87 | 1017.7 |
| 20260506134547 | 54 | 147 | 2.0 | 6.0 | 0.00 | 0.00 | 0.00 | 87 | 1017.7 |
| 20260506134046 | 54 | 253 | 2.0 | 9.0 | 0.00 | 0.00 | 0.00 | 86 | 1017.5 |
| 20260506133546 | 55 | 209 | 4.0 | 10.0 | 0.00 | 0.00 | 0.00 | 86 | 1017.5 |
| 20260506133048 | 55 | 174 | 3.0 | 10.0 | 0.00 | 0.00 | 0.00 | 86 | 1017.5 |
| 20260506132550 | 55 | 175 | 4.0 | 7.0 | 0.00 | 0.00 | 0.00 | 86 | 1017.5 |
| 20260506132043 | 55 | 145 | 2.0 | 6.0 | 0.00 | 0.00 | 0.00 | 86 | 1017.5 |
| 20260506131541 | 55 | 195 | 2.0 | 7.0 | 0.00 | 0.00 | 0.00 | 86 | 1017.4 |
| 20260506131041 | 55 | 190 | 3.0 | 6.0 | 0.00 | 0.00 | 0.00 | 86 | 1017.3 |
| 20260506130541 | 55 | 191 | 2.0 | 5.0 | 0.00 | 0.00 | 0.00 | 85 | 1017.3 |
| 20260506130041 | 55 | 216 | 1.0 | 6.0 | 0.00 | 0.00 | 0.00 | 85 | 1017.3 |
| 20260506125540 | 55 | 164 | 3.0 | 7.0 | 0.00 | 0.00 | 0.00 | 85 | 1017.2 |
| 20260506125038 | 55 | 205 | 3.0 | 7.0 | 0.00 | 0.00 | 0.00 | 85 | 1017.3 |
| 20260506124540 | 55 | 192 | 3.0 | 6.0 | 0.00 | 0.00 | 0.00 | 86 | 1017.1 |
| 20260506124036 | 55 | 332 | 1.0 | 6.0 | 0.00 | 0.00 | 0.00 | 86 | 1017.1 |
| 20260506123536 | 55 | 73 | 2.0 | 6.0 | 0.00 | 0.00 | 0.00 | 86 | 1017.0 |
| 20260506123036 | 55 | 49 | 0.0 | 7.0 | 0.00 | 0.00 | 0.00 | 86 | 1016.9 |
| 20260506122535 | 55 | 199 | 0.0 | 7.0 | 0.00 | 0.00 | 0.00 | 86 | 1016.9 |
| 20260506122033 | 55 | 256 | 1.0 | 6.0 | 0.00 | 0.00 | 0.00 | 86 | 1016.9 |
| 20260506121533 | 55 | 161 | 1.0 | 5.0 | 0.00 | 0.00 | 0.00 | 86 | 1016.9 |
| 20260506121033 | 55 | 76 | 2.0 | 8.0 | 0.00 | 0.00 | 0.00 | 86 | 1016.8 |
| 20260506120532 | 55 | 31 | 0.0 | 8.0 | 0.00 | 0.00 | 0.00 | 87 | 1016.8 |
| 20260506120034 | 55 | 14 | 0.0 | 6.0 | 0.00 | 0.00 | 0.00 | 87 | 1016.9 |
| 20260506115532 | 55 | 360 | 0.0 | 4.0 | 0.00 | 0.00 | 0.00 | 87 | 1016.9 |
| 20260506115030 | 55 | 330 | 1.0 | 9.0 | 0.00 | 0.00 | 0.00 | 87 | 1016.9 |
| 20260506114530 | 55 | 30 | 4.0 | 9.0 | 0.00 | 0.00 | 0.00 | 88 | 1017.0 |
| 20260506114031 | 55 | 101 | 2.0 | 4.0 | 0.00 | 0.00 | 0.00 | 88 | 1016.9 |
| 20260506113532 | 54 | 218 | 0.0 | 2.0 | 0.00 | 0.00 | 0.00 | 88 | 1017.0 |
| 20260506113029 | 54 | 218 | 0.0 | 3.0 | 0.00 | 0.00 | 0.00 | 87 | 1016.9 |
| 20260506112532 | 54 | 197 | 1.0 | 3.0 | 0.00 | 0.00 | 0.00 | 87 | 1016.8 |
| 20260506112030 | 54 | 259 | 0.0 | 3.0 | 0.00 | 0.00 | 0.00 | 87 | 1016.7 |
| 20260506111530 | 55 | 295 | 0.0 | 3.0 | 0.00 | 0.00 | 0.00 | 87 | 1016.6 |
| 20260506111025 | 55 | 295 | 1.0 | 3.0 | 0.00 | 0.00 | 0.00 | 87 | 1016.5 |
| 20260506110525 | 55 | 295 | 1.0 | 3.0 | 0.00 | 0.00 | 0.00 | 86 | 1016.4 |
| 20260506110025 | 55 | 262 | 0.0 | 2.0 | 0.00 | 0.00 | 0.00 | 86 | 1016.4 |
| 20260506105524 | 55 | 262 | 0.0 | 2.0 | 0.00 | 0.00 | 0.00 | 86 | 1016.4 |
| 20260506105024 | 55 | 262 | 0.0 | 2.0 | 0.00 | 0.00 | 0.00 | 86 | 1016.4 |
| 20260506104523 | 55 | 262 | 0.0 | 3.0 | 0.00 | 0.00 | 0.00 | 86 | 1016.3 |
| 20260506104023 | 55 | 312 | 0.0 | 3.0 | 0.00 | 0.00 | 0.00 | 86 | 1016.3 |
| 20260506103523 | 55 | 289 | 0.0 | 4.0 | 0.00 | 0.00 | 0.00 | 86 | 1016.3 |
| 20260506103022 | 55 | 307 | 1.0 | 3.0 | 0.00 | 0.00 | 0.00 | 86 | 1016.2 |
| 20260506102522 | 55 | 301 | 2.0 | 3.0 | 0.00 | 0.00 | 0.00 | 86 | 1016.2 |
| 20260506102020 | 55 | 135 | 1.0 | 3.0 | 0.00 | 0.00 | 0.00 | 86 | 1016.3 |
| 20260506101519 | 55 | 224 | 0.0 | 4.0 | 0.00 | 0.00 | 0.00 | 86 | 1016.2 |
| 20260506101021 | 55 | 214 | 0.0 | 4.0 | 0.00 | 0.00 | 0.00 | 87 | 1016.1 |
| 20260506100519 | 55 | 221 | 2.0 | 4.0 | 0.00 | 0.00 | 0.00 | 87 | 1016.1 |
| 20260506100017 | 55 | 117 | 0.0 | 4.0 | 0.00 | 0.00 | 0.00 | 87 | 1016.0 |
| 20260506095517 | 55 | 24 | 1.0 | 5.0 | 0.00 | 0.00 | 0.00 | 88 | 1015.9 |
| 20260506095018 | 55 | 35 | 3.0 | 7.0 | 0.00 | 0.00 | 0.00 | 88 | 1015.8 |
| 20260506094517 | 55 | 61 | 0.0 | 8.0 | 0.00 | 0.00 | 0.00 | 88 | 1015.8 |
| 20260506094014 | 55 | 226 | 1.0 | 8.0 | 0.00 | 0.00 | 0.00 | 88 | 1015.7 |
| 20260506093516 | 54 | 283 | 0.0 | 10.0 | 0.00 | 0.00 | 0.00 | 89 | 1015.7 |
| 20260506093012 | 54 | 360 | 2.0 | 10.0 | 0.00 | 0.00 | 0.00 | 89 | 1015.6 |
| 20260506092511 | 54 | 84 | 1.0 | 4.0 | 0.00 | 0.00 | 0.00 | 88 | 1015.7 |
| 20260506092010 | 54 | 259 | 1.0 | 4.0 | 0.00 | 0.00 | 0.00 | 87 | 1015.6 |
| 20260506091510 | 54 | 16 | 1.0 | 4.0 | 0.00 | 0.00 | 0.00 | 87 | 1015.6 |
| 20260506091013 | 54 | 330 | 0.0 | 3.0 | 0.00 | 0.00 | 0.00 | 87 | 1015.6 |
| 20260506090509 | 54 | 29 | 1.0 | 3.0 | 0.00 | 0.00 | 0.00 | 87 | 1015.6 |
| 20260506090008 | 54 | 328 | 1.0 | 6.0 | 0.00 | 0.00 | 0.00 | 86 | 1015.5 |
| 20260506085507 | 54 | 5 | 1.0 | 6.0 | 0.00 | 0.00 | 0.00 | 86 | 1015.5 |
| 20260506085006 | 54 | 347 | 1.0 | 3.0 | 0.00 | 0.00 | 0.00 | 85 | 1015.6 |
| 20260506084506 | 54 | 314 | 1.0 | 3.0 | 0.00 | 0.00 | 0.00 | 85 | 1015.5 |
| 20260506084005 | 54 | 360 | 1.0 | 3.0 | 0.00 | 0.00 | 0.00 | 85 | 1015.5 |
| 20260506083504 | 54 | 309 | 1.0 | 3.0 | 0.00 | 0.00 | 0.00 | 85 | 1015.4 |
| 20260506083007 | 54 | 295 | 1.0 | 3.0 | 0.00 | 0.00 | 0.00 | 84 | 1015.4 |
| 20260506082505 | 54 | 191 | 1.0 | 3.0 | 0.00 | 0.00 | 0.00 | 84 | 1015.3 |
| 20260506082002 | 55 | 41 | 0.0 | 2.0 | 0.00 | 0.00 | 0.00 | 84 | 1015.4 |
| 20260506081501 | 55 | 41 | 0.0 | 2.0 | 0.00 | 0.00 | 0.00 | 84 | 1015.4 |
| 20260506081004 | 55 | 41 | 0.0 | 2.0 | 0.00 | 0.00 | 0.00 | 83 | 1015.3 |
| 20260506080600 | 55 | 41 | 0.0 | 3.0 | 0.00 | 0.00 | 0.00 | 84 | 1015.3 |
| 20260506073056 | 56 | 320 | 1.0 | 2.0 | 0.00 | 0.00 | 0.00 | 82 | 1015.1 |
| 20260506072554 | 56 | 320 | 1.0 | 2.0 | 0.00 | 0.00 | 0.00 | 81 | 1015.1 |
| 20260506072054 | 56 | 320 | 1.0 | 3.0 | 0.00 | 0.00 | 0.00 | 81 | 1015.0 |
| 20260506071553 | 56 | 320 | 1.0 | 4.0 | 0.00 | 0.00 | 0.00 | 81 | 1015.0 |
| 20260506071051 | 57 | 330 | 2.0 | 4.0 | 0.00 | 0.00 | 0.00 | 80 | 1015.0 |
| 20260506070551 | 57 | 326 | 1.0 | 3.0 | 0.00 | 0.00 | 0.00 | 81 | 1015.0 |
| 20260506062047 | 56 | 5 | 1.0 | 3.0 | 0.00 | 0.00 | 0.00 | 81 | 1014.7 |
| 20260506061550 | 56 | 14 | 1.0 | 3.0 | 0.00 | 0.00 | 0.00 | 81 | 1014.7 |
| 20260506061048 | 57 | 320 | 1.0 | 3.0 | 0.00 | 0.00 | 0.00 | 80 | 1014.8 |
| 20260506060546 | 57 | 285 | 1.0 | 3.0 | 0.00 | 0.00 | 0.00 | 80 | 1014.7 |
| 20260506051043 | 58 | 5 | 1.0 | 3.0 | 0.00 | 0.00 | 0.00 | 79 | 1014.4 |
| 20260506050543 | 58 | 5 | 1.0 | 2.0 | 0.00 | 0.00 | 0.00 | 79 | 1014.3 |
| 20260506045043 | 58 | 5 | 1.0 | 2.0 | 0.00 | 0.00 | 0.00 | 78 | 1014.3 |
| 20260506044545 | 59 | 5 | 0.0 | 1.0 | 0.00 | 0.00 | 0.00 | 78 | 1014.2 |
| 20260506044042 | 59 | 5 | 0.0 | 2.0 | 0.00 | 0.00 | 0.00 | 78 | 1014.1 |
| 20260506043542 | 59 | 5 | 1.0 | 2.0 | 0.00 | 0.00 | 0.00 | 77 | 1014.0 |
| 20260506043042 | 59 | 40 | 2.0 | 3.0 | 0.00 | 0.00 | 0.00 | 77 | 1014.1 |
| 20260506042542 | 59 | 40 | 1.0 | 3.0 | 0.00 | 0.00 | 0.00 | 76 | 1014.1 |
| 20260506042044 | 59 | 16 | 1.0 | 2.0 | 0.00 | 0.00 | 0.00 | 76 | 1014.1 |
| 20260506041556 | 60 | 16 | 1.0 | 2.0 | 0.00 | 0.00 | 0.00 | 75 | 1014.1 |
| 20260506041041 | 60 | 276 | 1.0 | 2.0 | 0.00 | 0.00 | 0.00 | 75 | 1014.0 |
| 20260506040540 | 60 | 187 | 0.0 | 1.0 | 0.00 | 0.00 | 0.00 | 75 | 1013.9 |
| 20260506040040 | 60 | 187 | 0.0 | 1.0 | 0.00 | 0.00 | 0.00 | 74 | 1013.9 |
| 20260506035541 | 60 | 187 | 0.0 | 1.0 | 0.00 | 0.00 | 0.00 | 73 | 1013.9 |
| 20260506035040 | 61 | 187 | 0.0 | 2.0 | 0.00 | 0.00 | 0.00 | 72 | 1013.8 |
| 20260506034549 | 61 | 187 | 0.0 | 3.0 | 0.00 | 0.00 | 0.00 | 72 | 1013.8 |
| 20260506034039 | 61 | 187 | 0.0 | 3.0 | 0.00 | 0.00 | 0.00 | 71 | 1013.7 |
| 20260506033539 | 61 | 168 | 0.0 | 2.0 | 0.00 | 0.00 | 0.00 | 70 | 1013.7 |
| 20260506033041 | 62 | 168 | 0.0 | 4.0 | 0.00 | 0.00 | 0.00 | 69 | 1013.6 |
| 20260506032543 | 62 | 191 | 1.0 | 4.0 | 0.00 | 0.00 | 0.00 | 69 | 1013.6 |
| 20260506032039 | 62 | 176 | 3.0 | 5.0 | 0.00 | 0.00 | 0.00 | 68 | 1013.4 |
| 20260506031539 | 63 | 180 | 2.0 | 6.0 | 0.00 | 0.00 | 0.00 | 68 | 1013.4 |
| 20260506031038 | 63 | 199 | 0.0 | 3.0 | 0.00 | 0.00 | 0.00 | 68 | 1013.3 |
| 20260506030538 | 63 | 155 | 1.0 | 5.0 | 0.00 | 0.00 | 0.00 | 67 | 1013.4 |
| 20260506030039 | 64 | 99 | 2.0 | 6.0 | 0.00 | 0.00 | 0.00 | 67 | 1013.3 |
| 20260506025539 | 64 | 180 | 3.0 | 6.0 | 0.00 | 0.00 | 0.00 | 66 | 1013.3 |
| 20260506025037 | 64 | 174 | 3.0 | 5.0 | 0.00 | 0.00 | 0.00 | 66 | 1013.3 |
| 20260506024537 | 65 | 137 | 0.0 | 6.0 | 0.00 | 0.00 | 0.00 | 65 | 1013.2 |
| 20260506024037 | 65 | 179 | 3.0 | 6.0 | 0.00 | 0.00 | 0.00 | 65 | 1013.2 |
| 20260506023537 | 66 | 167 | 1.0 | 7.0 | 0.00 | 0.00 | 0.00 | 63 | 1013.2 |
| 20260506023037 | 66 | 216 | 4.0 | 7.0 | 0.00 | 0.00 | 0.00 | 63 | 1013.2 |
| 20260506022536 | 66 | 235 | 3.0 | 7.0 | 0.00 | 0.00 | 0.00 | 63 | 1013.3 |
| 20260506022036 | 67 | 184 | 4.0 | 7.0 | 0.00 | 0.00 | 0.00 | 62 | 1013.2 |
| 20260506021535 | 67 | 164 | 1.0 | 7.0 | 0.00 | 0.00 | 0.00 | 63 | 1013.2 |
| 20260506021035 | 67 | 174 | 3.0 | 7.0 | 0.00 | 0.00 | 0.00 | 62 | 1013.2 |
| 20260506020534 | 67 | 164 | 3.0 | 6.0 | 0.00 | 0.00 | 0.00 | 63 | 1013.2 |
| 20260506020040 | 67 | 188 | 3.0 | 9.0 | 0.00 | 0.00 | 0.00 | 63 | 1013.2 |
| 20260506015534 | 67 | 188 | 5.0 | 9.0 | 0.00 | 0.00 | 0.00 | 62 | 1013.2 |
| 20260506015036 | 67 | 210 | 3.0 | 7.0 | 0.00 | 0.00 | 0.00 | 62 | 1013.3 |
| 20260506014534 | 67 | 176 | 4.0 | 8.0 | 0.00 | 0.00 | 0.00 | 62 | 1013.2 |
| 20260506014035 | 67 | 199 | 4.0 | 9.0 | 0.00 | 0.00 | 0.00 | 61 | 1013.1 |
| 20260506013534 | 68 | 206 | 4.0 | 10.0 | 0.00 | 0.00 | 0.00 | 62 | 1013.1 |
| 20260506013048 | 68 | 199 | 6.0 | 10.0 | 0.00 | 0.00 | 0.00 | 61 | 1013.2 |
| 20260506012536 | 68 | 211 | 5.0 | 10.0 | 0.00 | 0.00 | 0.00 | 61 | 1013.2 |
| 20260506012034 | 68 | 196 | 5.0 | 8.0 | 0.00 | 0.00 | 0.00 | 61 | 1013.2 |
| 20260506011540 | 68 | 210 | 2.0 | 9.0 | 0.00 | 0.00 | 0.00 | 61 | 1013.2 |
| 20260506011032 | 68 | 231 | 3.0 | 9.0 | 0.00 | 0.00 | 0.00 | 61 | 1013.3 |
| 20260506010533 | 68 | 152 | 5.0 | 10.0 | 0.00 | 0.00 | 0.00 | 60 | 1013.4 |
| 20260506010034 | 68 | 222 | 5.0 | 10.0 | 0.00 | 0.00 | 0.00 | 60 | 1013.3 |
| 20260506005532 | 68 | 214 | 3.0 | 10.0 | 0.00 | 0.00 | 0.00 | 60 | 1013.3 |
| 20260506005031 | 69 | 212 | 4.0 | 10.0 | 0.00 | 0.00 | 0.00 | 59 | 1013.4 |
| 20260506004532 | 69 | 181 | 4.0 | 10.0 | 0.00 | 0.00 | 0.00 | 60 | 1013.3 |
| 20260506004031 | 69 | 171 | 4.0 | 9.0 | 0.00 | 0.00 | 0.00 | 60 | 1013.3 |
| 20260506003531 | 69 | 218 | 3.0 | 9.0 | 0.00 | 0.00 | 0.00 | 59 | 1013.3 |
| 20260506003031 | 69 | 243 | 4.0 | 9.0 | 0.00 | 0.00 | 0.00 | 59 | 1013.2 |
| 20260506002531 | 69 | 229 | 4.0 | 10.0 | 0.00 | 0.00 | 0.00 | 59 | 1013.2 |
| 20260506002029 | 69 | 168 | 5.0 | 10.0 | 0.00 | 0.00 | 0.00 | 59 | 1013.1 |
| 20260506001529 | 70 | 193 | 2.0 | 10.0 | 0.00 | 0.00 | 0.00 | 59 | 1013.2 |
| 20260506001029 | 70 | 204 | 5.0 | 10.0 | 0.00 | 0.00 | 0.00 | 59 | 1013.3 |
| 20260506000528 | 70 | 210 | 4.0 | 10.0 | 0.00 | 0.00 | 0.00 | 59 | 1013.3 |
| 20260506000029 | 70 | 203 | 4.0 | 9.0 | 0.00 | 0.00 | 0.00 | 58 | 1013.3 |
| 20260505235528 | 70 | 232 | 3.0 | 9.0 | 0.00 | 0.00 | 0.00 | 58 | 1013.3 |
| 20260505235028 | 70 | 155 | 5.0 | 12.0 | 0.00 | 0.00 | 0.00 | 57 | 1013.3 |
| 20260505234528 | 71 | 181 | 8.0 | 12.0 | 0.00 | 0.00 | 0.00 | 57 | 1013.4 |
| 20260505234028 | 70 | 237 | 3.0 | 9.0 | 0.00 | 0.00 | 0.00 | 57 | 1013.4 |
| 20260505233529 | 70 | 216 | 5.0 | 9.0 | 0.00 | 0.00 | 0.00 | 57 | 1013.4 |
| 20260505233028 | 70 | 174 | 4.0 | 11.0 | 0.00 | 0.00 | 0.00 | 57 | 1013.5 |
| 20260505232526 | 70 | 191 | 7.0 | 11.0 | 0.00 | 0.00 | 0.00 | 56 | 1013.5 |
| 20260505232026 | 71 | 210 | 6.0 | 9.0 | 0.00 | 0.00 | 0.00 | 57 | 1013.6 |
| 20260505231527 | 70 | 209 | 1.0 | 9.0 | 0.00 | 0.00 | 0.00 | 57 | 1013.6 |
| 20260505231125 | 71 | 212 | 4.0 | 10.0 | 0.00 | 0.00 | 0.00 | 57 | 1013.7 |
| 20260505230525 | 71 | 168 | 6.0 | 10.0 | 0.00 | 0.00 | 0.00 | 56 | 1013.7 |
| 20260505230024 | 71 | 234 | 4.0 | 9.0 | 0.00 | 0.00 | 0.00 | 57 | 1013.8 |
| 20260505225524 | 71 | 248 | 5.0 | 9.0 | 0.00 | 0.00 | 0.00 | 56 | 1013.9 |
| 20260505225027 | 71 | 170 | 3.0 | 8.0 | 0.00 | 0.00 | 0.00 | 55 | 1013.9 |
| 20260505224524 | 71 | 207 | 4.0 | 8.0 | 0.00 | 0.00 | 0.00 | 56 | 1014.0 |
| 20260505224023 | 71 | 185 | 4.0 | 8.0 | 0.00 | 0.00 | 0.00 | 57 | 1014.0 |
| 20260505223527 | 70 | 173 | 2.0 | 9.0 | 0.00 | 0.00 | 0.00 | 56 | 1014.0 |
| 20260505223022 | 70 | 216 | 6.0 | 9.0 | 0.00 | 0.00 | 0.00 | 56 | 1014.0 |
| 20260505222525 | 70 | 238 | 3.0 | 10.0 | 0.00 | 0.00 | 0.00 | 56 | 1014.0 |
| 20260505222022 | 71 | 224 | 4.0 | 11.0 | 0.00 | 0.00 | 0.00 | 56 | 1014.0 |
| 20260505221522 | 71 | 197 | 6.0 | 11.0 | 0.00 | 0.00 | 0.00 | 56 | 1014.1 |
| 20260505221021 | 71 | 225 | 3.0 | 7.0 | 0.00 | 0.00 | 0.00 | 57 | 1014.1 |
| 20260505220519 | 70 | 193 | 3.0 | 8.0 | 0.00 | 0.00 | 0.00 | 57 | 1014.1 |
| 20260505220030 | 70 | 170 | 3.0 | 9.0 | 0.00 | 0.00 | 0.00 | 58 | 1014.1 |
| 20260505215519 | 70 | 195 | 4.0 | 11.0 | 0.00 | 0.00 | 0.00 | 57 | 1014.2 |
| 20260505215018 | 70 | 115 | 4.0 | 11.0 | 0.00 | 0.00 | 0.00 | 57 | 1014.2 |
| 20260505214522 | 70 | 136 | 4.0 | 8.0 | 0.00 | 0.00 | 0.00 | 57 | 1014.2 |
| 20260505214018 | 70 | 207 | 4.0 | 9.0 | 0.00 | 0.00 | 0.00 | 59 | 1014.3 |
| 20260505213523 | 69 | 198 | 5.0 | 9.0 | 0.00 | 0.00 | 0.00 | 58 | 1014.3 |
| 20260505213017 | 70 | 232 | 5.0 | 8.0 | 0.00 | 0.00 | 0.00 | 59 | 1014.3 |
| 20260505212517 | 70 | 270 | 3.0 | 8.0 | 0.00 | 0.00 | 0.00 | 58 | 1014.3 |
| 20260505212016 | 70 | 269 | 1.0 | 8.0 | 0.00 | 0.00 | 0.00 | 59 | 1014.3 |
| 20260505211516 | 69 | 180 | 3.0 | 10.0 | 0.00 | 0.00 | 0.00 | 58 | 1014.4 |
| 20260505211019 | 69 | 180 | 6.0 | 10.0 | 0.00 | 0.00 | 0.00 | 59 | 1014.4 |
| 20260505210514 | 69 | 222 | 4.0 | 8.0 | 0.00 | 0.00 | 0.00 | 59 | 1014.4 |
| 20260505210014 | 69 | 217 | 3.0 | 8.0 | 0.00 | 0.00 | 0.00 | 61 | 1014.4 |
| 20260505205514 | 69 | 166 | 2.0 | 10.0 | 0.00 | 0.00 | 0.00 | 59 | 1014.5 |
| 20260505205014 | 69 | 207 | 6.0 | 10.0 | 0.00 | 0.00 | 0.00 | 59 | 1014.6 |
| 20260505204514 | 69 | 240 | 4.0 | 10.0 | 0.00 | 0.00 | 0.00 | 60 | 1014.6 |
| 20260505204014 | 69 | 180 | 6.0 | 10.0 | 0.00 | 0.00 | 0.00 | 59 | 1014.6 |
| 20260505203513 | 69 | 252 | 4.0 | 8.0 | 0.00 | 0.00 | 0.00 | 59 | 1014.6 |
| 20260505203013 | 69 | 215 | 4.0 | 8.0 | 0.00 | 0.00 | 0.00 | 60 | 1014.6 |
| 20260505202512 | 69 | 214 | 3.0 | 9.0 | 0.00 | 0.00 | 0.00 | 60 | 1014.6 |
| 20260505202011 | 68 | 221 | 3.0 | 11.0 | 0.00 | 0.00 | 0.00 | 60 | 1014.7 |
| 20260505201510 | 68 | 201 | 5.0 | 11.0 | 0.00 | 0.00 | 0.00 | 62 | 1014.7 |
| 20260505201009 | 68 | 209 | 5.0 | 10.0 | 0.00 | 0.00 | 0.00 | 62 | 1014.7 |
| 20260505200512 | 68 | 187 | 6.0 | 10.0 | 0.00 | 0.00 | 0.00 | 62 | 1014.7 |
| 20260505200014 | 67 | 228 | 3.0 | 10.0 | 0.00 | 0.00 | 0.00 | 65 | 1014.7 |
| 20260505195506 | 67 | 203 | 2.0 | 8.0 | 0.00 | 0.00 | 0.00 | 65 | 1014.7 |
| 20260505195005 | 67 | 210 | 4.0 | 9.0 | 0.00 | 0.00 | 0.00 | 64 | 1014.7 |
| 20260505194503 | 67 | 186 | 4.0 | 8.0 | 0.00 | 0.00 | 0.00 | 66 | 1014.7 |
| 20260505194004 | 66 | 179 | 5.0 | 9.0 | 0.00 | 0.00 | 0.00 | 66 | 1014.7 |
| 20260505193501 | 66 | 165 | 4.0 | 10.0 | 0.00 | 0.00 | 0.00 | 66 | 1014.8 |
| 20260505193106 | 66 | 202 | 2.0 | 10.0 | 0.00 | 0.00 | 0.00 | 66 | 1014.7 |
| 20260505192600 | 66 | 165 | 3.0 | 10.0 | 0.00 | 0.00 | 0.00 | 67 | 1014.7 |
| 20260505192057 | 65 | 122 | 6.0 | 10.0 | 0.00 | 0.00 | 0.00 | 67 | 1014.6 |
| 20260505191608 | 65 | 220 | 3.0 | 7.0 | 0.00 | 0.00 | 0.00 | 68 | 1014.7 |
| 20260505191056 | 65 | 222 | 3.0 | 9.0 | 0.00 | 0.00 | 0.00 | 67 | 1014.7 |
| 20260505190556 | 65 | 217 | 4.0 | 10.0 | 0.00 | 0.00 | 0.00 | 68 | 1014.8 |
| 20260505190055 | 65 | 164 | 5.0 | 10.0 | 0.00 | 0.00 | 0.00 | 68 | 1014.8 |
| 20260505185554 | 65 | 182 | 4.0 | 9.0 | 0.00 | 0.00 | 0.00 | 68 | 1014.8 |